[[{"header":{"parameterUnit":"m.s-1","parameterCategory":1,"la1":30.2991,"la2":30.254,"lo1":-89.0895,"lo2":-89.0444,"dy":0.0017,"dx":0.0017,"nx":28,"ny":28,"refTime":"2024-02-04T03:00:00:Z","depth":0,"parameterNumber":2,"parameterNumberName":"U-component_of_WINDS"},"data":[0,0,0,0,0,0,0,0,0,0,0,0,0,0,0,0,0,0,0,0,0,0,0,0,0,0,0,0,0,0,0,0,0,0,0,0,0,0,0,0,0,0,0,0,0,0,0,0,0,0,0,0,0,0,0,0,0,0,0.1537,0.1537,0,0.1571,0.1571,0.1572,0.16,0.16,0.16,0.1601,0.1637,0.1638,0.1638,0,0,0,0,0,0,0,0,0,0,0,0,0,0.1499,0.1499,0.1537,0.1537,0.1538,0.1571,0.1571,0.1572,0.16,0.16,0.1601,0.1601,0.1637,0.1638,0.1638,0,0,0,0,0,0,0,0,0,0,0,0,0,0.1522,0.1499,0.1537,0.1556,0.1558,0.1571,0.1571,0.1572,0.16,0.16,0.1601,0.1601,0.1636,0.1637,0.1639,0.1636,0,0,0.1642,0.1642,0,0,0,0,0,0,0,0,0.1521,0.1524,0.1553,0.1554,0.1557,0.1582,0.1571,0.1593,0.16,0.1584,0.1601,0.1601,0.1618,0.1621,0.1626,0.1638,0.1639,0.1642,0.1642,0.1643,0.1643,0,0,0,0,0,0,0,0.1519,0.1522,0.155,0.1553,0.1556,0.1563,0.1567,0.1575,0.1598,0.1585,0.1587,0.1591,0.162,0.1625,0.1627,0.164,0.1642,0.1643,0.1643,0.1644,0.1652,0.1651,0,0,0,0,0,0,0.1514,0.1521,0.1549,0.1551,0.1539,0.1564,0.1568,0.1573,0.1598,0.1602,0.1591,0.1592,0.1623,0.1626,0.1629,0.1628,0.1643,0.1644,0.1644,0.1652,0.1652,0.1651,0,0,0,0,0,0,0.1513,0.1517,0.1548,0.1537,0.1541,0.1564,0.1569,0.1574,0.1579,0.1602,0.1606,0.1592,0.1624,0.1627,0.1634,0.1629,0.1644,0.1645,0.1652,0.1652,0.1651,0.1625,0,0,0,0,0,0,0.1512,0.1516,0.1515,0.1536,0.1542,0.1552,0.1569,0.1574,0.1581,0.1583,0.1605,0.1609,0.1624,0.1632,0.1635,0.1631,0.1646,0.1653,0.1652,0.1651,0.1626,0.1624,0.1621,0,0,0,0,0,0.1511,0.1506,0.1514,0.1518,0.154,0.1551,0.1555,0.1572,0.158,0.1579,0.1594,0.1608,0.1629,0.1633,0.1636,0.1632,0.1653,0.1652,0.1652,0.1627,0.1624,0.1621,0,0,0,0,0,0,0.1483,0.1509,0.1519,0.1521,0.1534,0.1556,0.1555,0.1568,0.1579,0.1581,0.1603,0.1608,0.1612,0.1623,0.1626,0.1632,0.1643,0.1643,0.1624,0.1621,0.1618,0.1615,0.1647,0,0,0,0,0,0.1478,0.1484,0.1506,0.1506,0.1512,0.1533,0.1538,0.1551,0.1565,0.1571,0.1586,0.16,0.161,0.1616,0.1627,0.1628,0.1634,0.1628,0.1625,0.1623,0.1622,0.1625,0.1622,0.1648,0.1648,0.1648,0,0,0.1466,0.1481,0.1483,0.1501,0.1512,0.1519,0.1537,0.1543,0.1548,0.1572,0.1579,0.1591,0.1608,0.1612,0.1615,0.1622,0.1616,0.1622,0.162,0.162,0.1623,0.1621,0.1619,0.1647,0.1648,0.1648,0,0,0.1447,0.1459,0.146,0.1472,0.1489,0.1502,0.1503,0.1524,0.1532,0.154,0.1558,0.1565,0.1582,0.1593,0.1601,0.1589,0.1602,0.1592,0.1578,0.158,0.1578,0.1576,0.1572,0.157,0.1591,0.1591,0.1591,0,0.143,0.144,0.146,0.1465,0.1472,0.1494,0.1496,0.1506,0.1526,0.1531,0.1538,0.156,0.1573,0.158,0.1577,0.1583,0.1585,0.1589,0.1576,0.1575,0.1574,0.157,0.1568,0.159,0.159,0.159,0.159,0,0.1419,0.1426,0.1425,0.1443,0.1451,0.1454,0.1475,0.148,0.1493,0.1506,0.1514,0.1531,0.1545,0.1548,0.156,0.1558,0.1561,0.1572,0.1584,0.1569,0.1566,0.1565,0.1588,0.1588,0.1589,0.1589,0,0,0.1383,0.1413,0.1412,0.1421,0.1442,0.1448,0.1453,0.1466,0.1471,0.1484,0.149,0.1504,0.1514,0.1523,0.1537,0.1539,0.1529,0.155,0.1551,0.1545,0.1528,0.1519,0.1517,0.1538,0.1538,0.1537,0.1526,0,0.1368,0.1377,0.1395,0.1399,0.1406,0.1427,0.1432,0.1446,0.1459,0.1467,0.1482,0.1492,0.1505,0.151,0.1513,0.1529,0.1525,0.153,0.1543,0.1544,0.1538,0.1515,0.1506,0.1494,0.1525,0.1525,0.1525,0,0.1351,0.1363,0.1367,0.1388,0.1392,0.1396,0.141,0.1418,0.1435,0.1444,0.1455,0.147,0.1478,0.1489,0.15,0.1503,0.151,0.1519,0.1519,0.152,0.1533,0.1516,0.1491,0.1489,0.1523,0.1523,0.1523,0,0.1325,0.1342,0.1347,0.1354,0.1378,0.138,0.1391,0.1408,0.1416,0.1429,0.1434,0.1448,0.1456,0.1467,0.1486,0.1493,0.1495,0.1508,0.1504,0.1503,0.1503,0.1502,0.1478,0.1508,0.1508,0.1508,0.1508,0,0.1305,0.1307,0.1335,0.1338,0.1341,0.1362,0.1365,0.1378,0.1393,0.14,0.1419,0.1425,0.1451,0.146,0.1475,0.1482,0.1486,0.1494,0.1498,0.1492,0.1491,0.1496,0.1498,0.1507,0.1507,0.1507,0.1507,0,0.1276,0.1294,0.1301,0.1324,0.133,0.1331,0.1352,0.1356,0.1371,0.1379,0.1382,0.1405,0.1417,0.1438,0.1456,0.1466,0.1471,0.1478,0.1465,0.1467,0.1461,0.1461,0.1439,0.1438,0.1468,0.1468,0.1467,0,0.1262,0.1264,0.1287,0.1293,0.1302,0.1311,0.1319,0.134,0.1348,0.1368,0.137,0.1383,0.1395,0.1413,0.1432,0.1447,0.1454,0.1445,0.1456,0.145,0.1454,0.1453,0.1454,0.1443,0.1442,0.1442,0.1442,0,0.1235,0.1245,0.1255,0.1268,0.1277,0.1289,0.1302,0.1305,0.133,0.1338,0.135,0.1359,0.1377,0.1391,0.1408,0.142,0.1435,0.1438,0.1438,0.1431,0.1424,0.1428,0.1457,0.1438,0.1439,0.1439,0.1439,0.1439,0.1213,0.1216,0.1233,0.1244,0.1256,0.1268,0.1273,0.1289,0.1299,0.1315,0.1328,0.1339,0.1357,0.1382,0.1393,0.1403,0.141,0.1409,0.1409,0.1409,0.1406,0.1423,0.1406,0.1407,0.1407,0.1407,0.1407,0,0.1188,0.12,0.121,0.1227,0.1236,0.1249,0.1264,0.1271,0.1281,0.1296,0.1307,0.1322,0.1335,0.1356,0.1371,0.1375,0.1383,0.1379,0.1378,0.1381,0.1399,0.1398,0.1372,0.1372,0.1372,0.1372,0.1372,0.1372,0.1176,0.1181,0.1193,0.1205,0.1218,0.1228,0.1236,0.1248,0.126,0.1275,0.1286,0.1299,0.1317,0.1334,0.1347,0.1353,0.1358,0.1352,0.136,0.1376,0.138,0.1383,0.1381,0.1353,0.1352,0.134,0.134,0.134]},{"header":{"parameterUnit":"m.s-1","parameterCategory":1,"la1":30.2991,"la2":30.254,"lo1":-89.0895,"lo2":-89.0444,"dy":0.0017,"dx":0.0017,"nx":28,"ny":28,"refTime":"2024-02-04T03:00:00:Z","depth":0,"parameterNumber":3,"parameterNumberName":"V-component_of_WINDS"},"data":[0,0,0,0,0,0,0,0,0,0,0,0,0,0,0,0,0,0,0,0,0,0,0,0,0,0,0,0,0,0,0,0,0,0,0,0,0,0,0,0,0,0,0,0,0,0,0,0,0,0,0,0,0,0,0,0,0,0,-6.8639,-6.8641,0,-6.876,-6.8761,-6.8762,-6.8709,-6.8706,-6.8703,-6.87,-6.8817,-6.8823,-6.8829,0,0,0,0,0,0,0,0,0,0,0,0,0,-6.8358,-6.8364,-6.8639,-6.8641,-6.8642,-6.876,-6.8761,-6.8763,-6.871,-6.8706,-6.8702,-6.8699,-6.8815,-6.8822,-6.8829,0,0,0,0,0,0,0,0,0,0,0,0,0,-6.848,-6.8366,-6.8639,-6.863,-6.863,-6.8759,-6.8761,-6.8763,-6.871,-6.8706,-6.8702,-6.8697,-6.8813,-6.8822,-6.883,-6.8973,0,0,-6.8857,-6.8861,0,0,0,0,0,0,0,0,-6.8473,-6.849,-6.863,-6.8631,-6.8632,-6.8715,-6.8705,-6.8833,-6.8712,-6.868,-6.87,-6.8695,-6.8786,-6.8797,-6.8829,-6.8978,-6.8983,-6.8858,-6.8863,-6.8867,-6.8869,0,0,0,0,0,0,0,-6.8465,-6.8484,-6.8687,-6.8632,-6.8633,-6.8618,-6.8631,-6.8729,-6.8756,-6.8682,-6.8679,-6.8694,-6.8786,-6.8821,-6.8831,-6.8985,-6.8858,-6.8865,-6.8871,-6.8874,-6.9258,-6.9263,0,0,0,0,0,0,-6.8457,-6.8478,-6.8683,-6.869,-6.854,-6.8627,-6.8641,-6.8693,-6.8755,-6.876,-6.8698,-6.8691,-6.8808,-6.8821,-6.8835,-6.9008,-6.8867,-6.8875,-6.888,-6.9254,-6.926,-6.9265,0,0,0,0,0,0,-6.8451,-6.8476,-6.8678,-6.8583,-6.8608,-6.8637,-6.8695,-6.8697,-6.8732,-6.8767,-6.8771,-6.8729,-6.8805,-6.8823,-6.894,-6.9011,-6.8879,-6.8887,-6.9248,-6.9255,-6.9262,-6.9353,0,0,0,0,0,0,-6.8443,-6.8474,-6.853,-6.8585,-6.8613,-6.8782,-6.87,-6.8703,-6.8748,-6.8741,-6.8797,-6.8802,-6.8803,-6.8927,-6.8949,-6.9021,-6.8894,-6.9241,-6.9251,-6.926,-6.9343,-6.9362,-6.9378,0,0,0,0,0,-6.8433,-6.8548,-6.8533,-6.8558,-6.8684,-6.8787,-6.8802,-6.8803,-6.8754,-6.881,-6.8832,-6.88,-6.9,-6.8939,-6.8963,-6.9039,-6.9237,-6.9248,-6.9259,-6.9336,-6.9359,-6.9378,0,0,0,0,0,0,-6.8497,-6.8555,-6.8538,-6.8675,-6.8727,-6.8777,-6.8847,-6.8827,-6.8892,-6.8882,-6.8878,-6.8891,-6.9012,-6.9037,-6.8969,-6.9181,-6.9111,-6.9127,-6.9161,-6.9183,-6.92,-6.9191,-6.8901,0,0,0,0,0,-6.8528,-6.8609,-6.8654,-6.877,-6.8797,-6.8818,-6.8863,-6.8859,-6.8912,-6.8932,-6.8963,-6.9014,-6.9088,-6.9136,-6.9206,-6.9347,-6.9358,-6.9411,-6.9428,-6.9442,-6.9456,-6.9534,-6.9558,-6.9301,-6.9301,-6.9301,0,0,-6.8591,-6.8632,-6.8683,-6.8784,-6.8824,-6.8906,-6.8837,-6.8926,-6.8987,-6.8945,-6.9059,-6.9083,-6.9139,-6.9269,-6.9327,-6.9293,-6.953,-6.9456,-6.9467,-6.9474,-6.9548,-6.9572,-6.9594,-6.9309,-6.9308,-6.9306,0,0,-6.8748,-6.8787,-6.8889,-6.8931,-6.8993,-6.9007,-6.9032,-6.9086,-6.9102,-6.9216,-6.9187,-6.9258,-6.9386,-6.9427,-6.9465,-6.9641,-6.9614,-6.9663,-6.9754,-6.983,-6.985,-6.9868,-6.9931,-6.9954,-6.9677,-6.9678,-6.9678,0,-6.8817,-6.8943,-6.8944,-6.9037,-6.9082,-6.9052,-6.9154,-6.9194,-6.9275,-6.9306,-6.9267,-6.9428,-6.9463,-6.9603,-6.9647,-6.9678,-6.9705,-6.9657,-6.9847,-6.9865,-6.9882,-6.9942,-6.9966,-6.9683,-6.9683,-6.9682,-6.9681,0,-6.9026,-6.9113,-6.9187,-6.927,-6.9323,-6.9421,-6.9436,-6.949,-6.9482,-6.9499,-6.9616,-6.9658,-6.9737,-6.9769,-6.9761,-6.9909,-6.9886,-6.9847,-6.9777,-6.9912,-6.9969,-6.9992,-6.9691,-6.9689,-6.9688,-6.9686,0,0,-6.9225,-6.9309,-6.9336,-6.9374,-6.9441,-6.9508,-6.9604,-6.9683,-6.973,-6.9787,-6.9867,-6.9977,-6.9943,-6.9986,-6.9982,-7.0048,-7.0186,-7.0002,-7.0003,-7.0035,-7.0352,-7.0381,-7.0408,-7.0169,-7.0173,-7.0177,-7.0348,0,-6.9388,-6.9559,-6.9564,-6.972,-6.98,-6.9773,-6.9857,-6.9906,-6.9926,-6.9996,-7.0015,-7.0094,-7.0042,-7.0069,-7.0133,-7.0156,-7.025,-7.0144,-7.0243,-7.0246,-7.023,-7.0438,-7.0468,-7.0628,-7.037,-7.0374,-7.0376,0,-6.96,-6.9668,-6.9833,-6.989,-6.9924,-7.0,-7.0074,-7.0142,-7.0197,-7.0206,-7.0256,-7.0243,-7.034,-7.0267,-7.0401,-7.0328,-7.0369,-7.0387,-7.0393,-7.0402,-7.032,-7.0453,-7.0678,-7.0703,-7.0411,-7.0408,-7.0406,0,-6.9731,-6.9862,-6.9978,-7.0011,-7.0081,-7.0135,-7.0166,-7.0217,-7.0266,-7.033,-7.0361,-7.0435,-7.0475,-7.0532,-7.0539,-7.0485,-7.0674,-7.0601,-7.0684,-7.0684,-7.0724,-7.0722,-7.096,-7.075,-7.075,-7.0749,-7.0749,0,-6.9912,-7.0014,-7.0038,-7.011,-7.0223,-7.0228,-7.0339,-7.0366,-7.0412,-7.0488,-7.0467,-7.0538,-7.0543,-7.0615,-7.0621,-7.0731,-7.0749,-7.0759,-7.0759,-7.0761,-7.076,-7.0788,-7.0777,-7.0756,-7.0754,-7.0753,-7.0752,0,-7.0076,-7.0097,-7.0222,-7.0279,-7.0296,-7.0377,-7.0425,-7.0493,-7.0511,-7.0606,-7.0629,-7.0656,-7.0741,-7.0754,-7.0852,-7.0856,-7.0988,-7.0977,-7.0971,-7.0969,-7.1052,-7.1044,-7.1316,-7.1353,-7.1119,-7.1121,-7.1123,0,-7.0191,-7.027,-7.0336,-7.0387,-7.0422,-7.0503,-7.0553,-7.056,-7.0613,-7.0684,-7.0743,-7.0826,-7.0892,-7.1028,-7.1056,-7.1131,-7.1121,-7.1212,-7.1132,-7.1132,-7.1124,-7.1119,-7.1127,-7.1227,-7.1229,-7.1231,-7.1233,0,-7.0393,-7.04,-7.0475,-7.0554,-7.0615,-7.0677,-7.0735,-7.0776,-7.0791,-7.0851,-7.0939,-7.0991,-7.1093,-7.1175,-7.1251,-7.128,-7.126,-7.1258,-7.1282,-7.1284,-7.1278,-7.1284,-7.1013,-7.1252,-7.125,-7.1248,-7.1247,-7.1247,-7.0537,-7.0606,-7.0665,-7.0749,-7.0794,-7.085,-7.0917,-7.0945,-7.1019,-7.1105,-7.1104,-7.12,-7.1254,-7.1354,-7.1389,-7.1463,-7.1434,-7.1467,-7.1476,-7.1484,-7.1493,-7.1267,-7.1477,-7.1476,-7.1476,-7.1475,-7.1475,0,-7.0739,-7.0776,-7.0853,-7.0937,-7.1004,-7.0981,-7.1045,-7.1101,-7.1187,-7.1241,-7.1308,-7.1409,-7.1489,-7.1524,-7.1603,-7.1656,-7.1649,-7.1677,-7.1673,-7.168,-7.1514,-7.1487,-7.1682,-7.1682,-7.1682,-7.1682,-7.1681,-7.1681,-7.0852,-7.0969,-7.0983,-7.1122,-7.1157,-7.1254,-7.1292,-7.1343,-7.1387,-7.1502,-7.157,-7.1593,-7.1639,-7.1721,-7.1794,-7.1802,-7.1832,-7.1865,-7.1869,-7.1713,-7.1692,-7.1672,-7.1646,-7.1871,-7.1872,-7.2029,-7.203,-7.2031]}]]